TimePDT,TemperatureF,Dew PointF,Humidity,Sea Level PressureIn,VisibilityMPH,Wind Direction,Wind SpeedMPH,Gust SpeedMPH,PrecipitationIn,Events,Conditions,WindDirDegrees,DateUTC
1:58 AM,67.1,15.1,13,29.44,10.0,SSW,8.1,21.9,N/A,,Mostly Cloudy,200,2013-04-08 08:58:00
2:58 AM,64.8,12.0,13,29.38,10.0,SW,12.7,24.2,N/A,,Clear,230,2013-04-08 09:58:00
3:09 AM,66.2,3.2,8,29.38,10.0,South,18.4,29.9,N/A,,Clear,170,2013-04-08 10:09:00
3:58 AM,62.1,18.3,18,29.36,10.0,SW,25.3,42.6,N/A,,Clear,220,2013-04-08 10:58:00
4:58 AM,58.8,26.1,29,29.36,10.0,SW,23.0,36.8,N/A,,Clear,220,2013-04-08 11:58:00
5:58 AM,58.3,27.5,31,29.36,10.0,SW,27.6,35.7,N/A,,Scattered Clouds,230,2013-04-08 12:58:00
6:28 AM,55.4,32.0,41,29.40,10.0,WSW,18.4,31.1,N/A,Rain,Light Rain,240,2013-04-08 13:28:00
6:41 AM,55.4,32.0,41,29.41,10.0,WSW,25.3,35.7,N/A,Rain-Thunderstorm,Light Thunderstorms and Rain,240,2013-04-08 13:41:00
6:42 AM,55.4,32.0,41,29.41,10.0,WSW,21.9,29.9,N/A,Rain,Light Rain,250,2013-04-08 13:42:00
6:43 AM,55.4,32.0,41,29.41,10.0,WSW,24.2,34.5,N/A,Rain-Thunderstorm,Light Thunderstorms and Rain,250,2013-04-08 13:43:00
6:44 AM,53.6,32.0,44,29.41,10.0,WSW,23.0,29.9,N/A,Rain,Light Rain,250,2013-04-08 13:44:00
6:58 AM,53.1,31.6,44,29.43,10.0,West,25.3,-,0.00,Rain,Light Rain,260,2013-04-08 13:58:00
6:59 AM,53.6,32.0,44,29.44,10.0,West,26.5,-,N/A,,Mostly Cloudy,260,2013-04-08 13:59:00
7:01 AM,51.8,32.0,47,29.46,10.0,WNW,29.9,-,N/A,,Mostly Cloudy,300,2013-04-08 14:01:00
7:02 AM,51.8,32.0,47,29.47,10.0,NW,31.1,-,N/A,Rain,Light Rain,310,2013-04-08 14:02:00
7:07 AM,50.0,35.6,58,29.49,10.0,NNW,29.9,35.7,N/A,Rain,Light Rain,330,2013-04-08 14:07:00
7:08 AM,48.2,37.4,66,29.49,10.0,NNW,29.9,35.7,N/A,Rain,Light Rain,330,2013-04-08 14:08:00
7:23 AM,42.8,35.6,76,29.50,10.0,North,17.3,27.6,N/A,Rain,Heavy Rain,350,2013-04-08 14:23:00
7:33 AM,44.6,35.6,71,29.50,10.0,NNW,12.7,21.9,N/A,Rain,Light Rain,330,2013-04-08 14:33:00
7:38 AM,44.6,35.6,71,29.49,10.0,NW,4.6,17.3,N/A,Rain,Light Rain,320,2013-04-08 14:38:00
7:46 AM,46.4,35.6,66,29.49,10.0,WSW,8.1,-,N/A,,Overcast,250,2013-04-08 14:46:00
7:58 AM,46.0,35.4,66,29.48,10.0,SSW,12.7,-,0.00,,Mostly Cloudy,200,2013-04-08 14:58:00
8:58 AM,51.3,31.5,47,29.45,10.0,WSW,19.6,-,N/A,,Scattered Clouds,250,2013-04-08 15:58:00
9:54 AM,55.4,30.2,38,29.46,10.0,NW,20.7,28.8,N/A,,Partly Cloudy,320,2013-04-08 16:54:00
9:58 AM,56.3,28.9,35,29.46,10.0,NW,20.7,28.8,N/A,,Partly Cloudy,310,2013-04-08 16:58:00
10:58 AM,56.8,27.1,32,29.46,10.0,NW,23.0,27.6,N/A,,Mostly Cloudy,310,2013-04-08 17:58:00
11:58 AM,58.1,25.7,29,29.45,10.0,WNW,21.9,28.8,N/A,,Scattered Clouds,300,2013-04-08 18:58:00
11:59 AM,59.0,26.6,29,29.45,10.0,WNW,19.6,28.8,N/A,,Scattered Clouds,300,2013-04-08 18:59:00
12:33 PM,59.0,30.2,34,29.46,10.0,WNW,24.2,28.8,N/A,Rain,Light Rain,300,2013-04-08 19:33:00
12:34 PM,59.0,30.2,34,29.46,10.0,WNW,24.2,28.8,N/A,Rain,Light Rain,290,2013-04-08 19:34:00
12:38 PM,57.2,32.0,38,29.46,10.0,West,19.6,28.8,N/A,Rain,Light Rain,280,2013-04-08 19:38:00
12:55 PM,59.0,24.8,27,29.45,10.0,WNW,18.4,31.1,N/A,,Mostly Cloudy,300,2013-04-08 19:55:00
12:58 PM,54.1,29.8,39,29.46,10.0,West,13.8,29.9,0.00,Rain,Light Rain,260,2013-04-08 19:58:00
12:59 PM,55.4,32.0,41,29.46,10.0,West,15.0,25.3,N/A,,Overcast,260,2013-04-08 19:59:00
1:16 PM,57.2,28.4,33,29.47,10.0,WNW,15.0,-,N/A,,Overcast,300,2013-04-08 20:16:00
1:18 PM,57.2,28.4,33,29.47,10.0,NNW,20.7,28.8,N/A,,Overcast,340,2013-04-08 20:18:00
1:23 PM,57.2,32.0,38,29.48,10.0,NNW,29.9,35.7,N/A,Rain,Light Rain,340,2013-04-08 20:23:00
1:39 PM,53.6,32.0,44,29.49,10.0,NNW,20.7,24.2,N/A,,Mostly Cloudy,330,2013-04-08 20:39:00
1:58 PM,57.7,31.1,36,29.49,10.0,NNW,18.4,29.9,0.00,,Mostly Cloudy,330,2013-04-08 20:58:00
2:34 PM,57.2,30.2,36,29.50,10.0,North,13.8,-,N/A,,Overcast,350,2013-04-08 21:34:00
2:45 PM,55.4,32.0,41,29.51,10.0,North,19.6,27.6,N/A,Rain,Rain,360,2013-04-08 21:45:00
2:46 PM,53.6,33.8,47,29.51,10.0,North,21.9,27.6,N/A,Rain,Rain,350,2013-04-08 21:46:00
2:52 PM,51.8,37.4,58,29.53,10.0,NNW,20.7,28.8,N/A,Rain,Light Rain,330,2013-04-08 21:52:00
2:58 PM,50.9,37.8,61,29.52,10.0,WNW,16.1,26.5,0.00,Rain,Light Rain,300,2013-04-08 21:58:00
3:10 PM,50.0,39.2,66,29.52,10.0,WNW,23.0,31.1,N/A,,Overcast,290,2013-04-08 22:10:00
3:50 PM,51.8,33.8,50,29.53,10.0,WNW,17.3,-,N/A,Rain,Light Rain,290,2013-04-08 22:50:00
3:58 PM,52.7,34.3,50,29.53,10.0,WNW,21.9,26.5,0.00,Rain,Light Rain,300,2013-04-08 22:58:00
3:59 PM,53.6,33.8,47,29.52,10.0,WNW,24.2,27.6,N/A,,Mostly Cloudy,290,2013-04-08 22:59:00
4:58 PM,55.8,28.4,35,29.55,10.0,NNW,21.9,25.3,0.00,,Partly Cloudy,340,2013-04-08 23:58:00
5:58 PM,56.5,18.7,23,29.58,10.0,NNW,26.5,35.7,N/A,,Scattered Clouds,340,2013-04-09 00:58:00
6:58 PM,55.4,18.0,23,29.61,10.0,North,24.2,-,N/A,,Scattered Clouds,350,2013-04-09 01:58:00
7:58 PM,53.4,18.5,25,29.64,10.0,North,15.0,-,N/A,,Overcast,350,2013-04-09 02:58:00
8:58 PM,53.1,16.9,24,29.67,10.0,NNW,19.6,31.1,N/A,,Mostly Cloudy,340,2013-04-09 03:58:00
9:58 PM,52.2,16.3,24,29.69,10.0,NNW,16.1,26.5,N/A,,Overcast,340,2013-04-09 04:58:00
10:58 PM,50.2,18.7,29,29.72,10.0,NW,10.4,19.6,N/A,,Overcast,310,2013-04-09 05:58:00
11:25 PM,50.0,21.2,32,29.72,10.0,NNW,15.0,-,N/A,,Overcast,330,2013-04-09 06:25:00
11:58 PM,49.1,18.7,30,29.74,10.0,WNW,12.7,-,N/A,,Scattered Clouds,300,2013-04-09 06:58:00